Location: Acheville
(50.3840°N, 2.8827°E)
Time: 11:06:15
(UTC+00:00)

SL-08 RB Rocket - Pass Details

Date: 24 October 2021
Orbit: 646 x 683 km, 97.8° (Epoch: 30 November)

Event Time Altitude Azimuth Distance (km) Brightness Sun altitude
Rises 18:12:45 0° 161° (SSE) 2,989 6.9 -15.6°
Reaches altitude 10° 18:14:57 10° 161° (SSE) 2,086 6.1 -16.0°
Maximum altitude 18:19:31 81° 75° (ENE) 687 3.6 -16.7°
Drops below altitude 10° 18:24:10 10° 348° (NNW) 2,125 6.5 -17.4°
Sets 18:26:26 0° 348° (NNW) 3,049 7.3 -17.8°
